[[{"header":{"parameterUnit":"m.s-1","parameterCategory":1,"la1":30.2991,"la2":30.254,"lo1":-89.0895,"lo2":-89.0444,"dy":0.0017,"dx":0.0017,"nx":28,"ny":28,"refTime":"2023-04-28T21:00:00:Z","depth":0,"parameterNumber":2,"parameterNumberName":"U-component_of_WINDS"},"data":[0,0,0,0,0,0,0,0,0,0,0,0,0,0,0,0,0,0,0,0,0,0,0,0,0,0,0,0,0,0,0,0,0,0,0,0,0,0,0,0,0,0,0,0,0,0,0,0,0,0,0,0,0,0,0,0,0,0,0.2622,0.2622,0,0.264,0.264,0.264,0.2634,0.2634,0.2633,0.2633,0.265,0.2651,0.2652,0,0,0,0,0,0,0,0,0,0,0,0,0,0.2579,0.258,0.2622,0.2622,0.2622,0.264,0.264,0.2641,0.2634,0.2634,0.2633,0.2633,0.265,0.2651,0.2652,0,0,0,0,0,0,0,0,0,0,0,0,0,0.2597,0.258,0.2622,0.2621,0.2621,0.264,0.264,0.2641,0.2634,0.2634,0.2633,0.2632,0.265,0.2651,0.2652,0.2672,0,0,0.2656,0.2656,0,0,0,0,0,0,0,0,0.2596,0.2599,0.2621,0.2621,0.2621,0.2634,0.2632,0.2651,0.2634,0.2629,0.2633,0.2632,0.2645,0.2647,0.2652,0.2673,0.2674,0.2656,0.2657,0.2657,0.2658,0,0,0,0,0,0,0,0.2595,0.2598,0.2629,0.2621,0.2621,0.2619,0.2621,0.2635,0.264,0.263,0.2629,0.2632,0.2645,0.265,0.2652,0.2674,0.2656,0.2657,0.2658,0.2658,0.2711,0.2712,0,0,0,0,0,0,0.2594,0.2597,0.2628,0.2629,0.2607,0.2621,0.2623,0.2631,0.264,0.2641,0.2632,0.2631,0.2648,0.265,0.2652,0.2675,0.2657,0.2658,0.2659,0.271,0.2711,0.2712,0,0,0,0,0,0,0.2593,0.2597,0.2628,0.2613,0.2617,0.2622,0.2631,0.2631,0.2636,0.2642,0.2643,0.2636,0.2648,0.2651,0.2667,0.2676,0.2659,0.266,0.271,0.2711,0.2712,0.2722,0,0,0,0,0,0,0.2592,0.2597,0.2605,0.2613,0.2618,0.2642,0.2631,0.2632,0.2639,0.2638,0.2646,0.2647,0.2648,0.2665,0.2668,0.2677,0.2661,0.2709,0.271,0.2711,0.2721,0.2723,0.2725,0,0,0,0,0,0.259,0.2607,0.2605,0.2609,0.2628,0.2643,0.2645,0.2646,0.264,0.2647,0.2651,0.2647,0.2675,0.2667,0.267,0.268,0.2708,0.271,0.2711,0.272,0.2723,0.2725,0,0,0,0,0,0,0.2598,0.2608,0.2606,0.2626,0.2634,0.2642,0.2652,0.2649,0.2659,0.2657,0.2657,0.2659,0.2676,0.268,0.2671,0.2699,0.269,0.2693,0.2696,0.2699,0.2701,0.2699,0.2662,0,0,0,0,0,0.2603,0.2615,0.2622,0.2639,0.2643,0.2647,0.2653,0.2653,0.2661,0.2664,0.2669,0.2676,0.2686,0.2693,0.2703,0.2722,0.2723,0.273,0.2732,0.2734,0.2736,0.2745,0.2748,0.2717,0.2717,0.2717,0,0,0.2611,0.2618,0.2625,0.2641,0.2647,0.2658,0.2649,0.2662,0.267,0.2666,0.2681,0.2685,0.2693,0.271,0.2718,0.2714,0.2745,0.2736,0.2737,0.2738,0.2747,0.275,0.2752,0.2718,0.2717,0.2717,0,0,0.2633,0.2639,0.2653,0.266,0.2669,0.2671,0.2675,0.2683,0.2685,0.2701,0.2698,0.2707,0.2725,0.2731,0.2736,0.2759,0.2755,0.2762,0.2773,0.2782,0.2785,0.2787,0.2794,0.2796,0.2764,0.2764,0.2764,0,0.2642,0.2659,0.2661,0.2674,0.268,0.2677,0.2691,0.2697,0.2708,0.2712,0.2708,0.273,0.2735,0.2753,0.2759,0.2763,0.2766,0.2761,0.2784,0.2786,0.2788,0.2795,0.2798,0.2765,0.2765,0.2764,0.2764,0,0.267,0.2682,0.2692,0.2704,0.2712,0.2725,0.2728,0.2735,0.2734,0.2737,0.2752,0.2759,0.2769,0.2774,0.2773,0.2792,0.2789,0.2784,0.2775,0.2792,0.2798,0.2801,0.2766,0.2765,0.2765,0.2765,0,0,0.2696,0.2708,0.2712,0.2717,0.2727,0.2736,0.2749,0.2759,0.2765,0.2774,0.2783,0.2799,0.2794,0.28,0.28,0.2808,0.2825,0.2803,0.2803,0.2806,0.2844,0.2846,0.2849,0.2823,0.2823,0.2824,0.2843,0,0.2717,0.274,0.2742,0.2762,0.2773,0.277,0.2781,0.2787,0.279,0.2799,0.2802,0.2812,0.2807,0.281,0.2818,0.2821,0.2832,0.282,0.2831,0.2831,0.2828,0.2853,0.2856,0.2873,0.2845,0.2846,0.2846,0,0.2745,0.2754,0.2775,0.2783,0.2788,0.2797,0.2807,0.2816,0.2823,0.2825,0.2831,0.283,0.2842,0.2833,0.285,0.2841,0.2846,0.2848,0.2849,0.2849,0.2839,0.2853,0.2879,0.2882,0.285,0.285,0.285,0,0.276,0.2778,0.2793,0.2797,0.2807,0.2814,0.2818,0.2825,0.2831,0.2839,0.2843,0.2852,0.2857,0.2864,0.2865,0.2859,0.2881,0.2873,0.2882,0.2882,0.2886,0.2885,0.2912,0.2891,0.2891,0.2891,0.2891,0,0.2783,0.2796,0.28,0.2809,0.2823,0.2824,0.2838,0.2842,0.2848,0.2857,0.2855,0.2864,0.2865,0.2874,0.2875,0.2887,0.289,0.2891,0.289,0.289,0.289,0.2892,0.2891,0.2891,0.2891,0.2891,0.2891,0,0.2802,0.2806,0.2821,0.2829,0.2832,0.2841,0.2848,0.2856,0.2859,0.287,0.2873,0.2877,0.2887,0.2889,0.2901,0.2901,0.2916,0.2915,0.2913,0.2913,0.2921,0.292,0.295,0.2953,0.293,0.2931,0.2931,0,0.2816,0.2826,0.2835,0.2841,0.2845,0.2855,0.2861,0.2863,0.287,0.2878,0.2885,0.2895,0.2903,0.2919,0.2922,0.2931,0.293,0.294,0.2931,0.293,0.2929,0.2928,0.2928,0.2941,0.2941,0.2942,0.2942,0,0.2839,0.284,0.285,0.2859,0.2867,0.2875,0.2882,0.2887,0.2889,0.2897,0.2907,0.2913,0.2925,0.2934,0.2943,0.2947,0.2944,0.2945,0.2947,0.2946,0.2944,0.2944,0.2917,0.2944,0.2943,0.2943,0.2943,0.2943,0.2855,0.2864,0.2871,0.2881,0.2887,0.2894,0.2901,0.2905,0.2914,0.2924,0.2924,0.2935,0.2942,0.2953,0.2957,0.2965,0.2962,0.2966,0.2966,0.2967,0.2967,0.2944,0.2967,0.2967,0.2967,0.2967,0.2967,0,0.2878,0.2882,0.2892,0.2902,0.291,0.2908,0.2915,0.2922,0.2931,0.2938,0.2946,0.2957,0.2966,0.297,0.2979,0.2985,0.2984,0.2987,0.2986,0.2986,0.297,0.2967,0.2987,0.2987,0.2987,0.2987,0.2987,0.2987,0.289,0.2904,0.2906,0.2922,0.2926,0.2937,0.2941,0.2947,0.2952,0.2965,0.2973,0.2976,0.2981,0.299,0.2998,0.2999,0.3002,0.3005,0.3005,0.299,0.2988,0.2986,0.2982,0.3006,0.3006,0.3021,0.3021,0.3021]},{"header":{"parameterUnit":"m.s-1","parameterCategory":1,"la1":30.2991,"la2":30.254,"lo1":-89.0895,"lo2":-89.0444,"dy":0.0017,"dx":0.0017,"nx":28,"ny":28,"refTime":"2023-04-28T21:00:00:Z","depth":0,"parameterNumber":3,"parameterNumberName":"V-component_of_WINDS"},"data":[0,0,0,0,0,0,0,0,0,0,0,0,0,0,0,0,0,0,0,0,0,0,0,0,0,0,0,0,0,0,0,0,0,0,0,0,0,0,0,0,0,0,0,0,0,0,0,0,0,0,0,0,0,0,0,0,0,0,3.7792,3.779,0,3.759,3.7587,3.7585,3.7462,3.7461,3.746,3.746,3.7244,3.7239,3.7234,0,0,0,0,0,0,0,0,0,0,0,0,0,3.8063,3.8059,3.7792,3.779,3.7787,3.759,3.7587,3.7584,3.7462,3.7461,3.746,3.746,3.7245,3.7239,3.7233,0,0,0,0,0,0,0,0,0,0,0,0,0,3.7912,3.8058,3.7793,3.7702,3.7692,3.7591,3.7587,3.7584,3.7462,3.7461,3.746,3.7459,3.7247,3.724,3.7232,3.7202,0,0,3.7208,3.7205,0,0,0,0,0,0,0,0,3.7921,3.7902,3.7718,3.7708,3.7697,3.755,3.7603,3.7455,3.7462,3.7549,3.746,3.7459,3.7346,3.733,3.7293,3.7192,3.7182,3.7208,3.7203,3.72,3.7197,0,0,0,0,0,0,0,3.7931,3.791,3.7712,3.7716,3.7703,3.7669,3.7646,3.7575,3.7454,3.7541,3.7532,3.751,3.734,3.7301,3.7288,3.7179,3.7208,3.7201,3.7196,3.7193,3.7039,3.7039,0,0,0,0,0,0,3.7957,3.7919,3.7718,3.7706,3.7809,3.7665,3.764,3.7598,3.7455,3.7433,3.7511,3.7505,3.7315,3.7297,3.7279,3.7232,3.72,3.7192,3.7188,3.7038,3.7039,3.704,0,0,0,0,0,0,3.7964,3.7941,3.7726,3.781,3.778,3.7661,3.7615,3.7594,3.7556,3.7432,3.7409,3.7495,3.7314,3.729,3.7222,3.7223,3.7189,3.7182,3.7038,3.7038,3.7039,3.7139,0,0,0,0,0,0,3.7972,3.7944,3.7933,3.7811,3.7776,3.7675,3.7615,3.7591,3.7544,3.7534,3.7411,3.7389,3.7311,3.7234,3.7214,3.7211,3.7176,3.7037,3.7038,3.7039,3.7135,3.7143,3.715,0,0,0,0,0,3.7982,3.7968,3.7933,3.7909,3.7761,3.7676,3.7655,3.7568,3.7545,3.7531,3.7452,3.7393,3.7227,3.7228,3.7205,3.72,3.7036,3.7038,3.7039,3.7131,3.7141,3.715,0,0,0,0,0,0,3.809,3.795,3.791,3.7856,3.7779,3.7655,3.7635,3.7582,3.7508,3.7501,3.7394,3.7367,3.7308,3.7247,3.7251,3.7161,3.7125,3.7121,3.7203,3.7212,3.7219,3.7234,3.7169,0,0,0,0,0,3.8108,3.8054,3.7933,3.7897,3.7861,3.7756,3.7715,3.7655,3.7569,3.7535,3.745,3.7367,3.7295,3.725,3.7178,3.7126,3.7096,3.7111,3.7119,3.7126,3.7123,3.7088,3.7093,3.7044,3.7044,3.7044,0,0,3.8144,3.8061,3.8032,3.7917,3.785,3.7792,3.7728,3.7671,3.7626,3.7525,3.7455,3.7391,3.729,3.723,3.7199,3.7177,3.713,3.7127,3.7134,3.7127,3.709,3.7095,3.7099,3.7045,3.7045,3.7045,0,0,3.8179,3.8112,3.8074,3.8009,3.7909,3.7839,3.7831,3.7714,3.7668,3.7597,3.752,3.7464,3.7344,3.7275,3.7224,3.7234,3.7176,3.7213,3.7252,3.7219,3.7223,3.7226,3.7226,3.7228,3.7212,3.7212,3.7212,0,3.8235,3.8148,3.806,3.8007,3.7957,3.7867,3.7825,3.7765,3.7646,3.7612,3.7591,3.7437,3.7364,3.7284,3.7287,3.725,3.7233,3.7226,3.723,3.7232,3.7233,3.7232,3.7233,3.7217,3.7216,3.7216,3.7215,0,3.822,3.8161,3.8142,3.8032,3.798,3.7933,3.7835,3.7792,3.7737,3.7669,3.7596,3.7505,3.7412,3.7389,3.7333,3.7301,3.729,3.7251,3.7211,3.7244,3.7241,3.7241,3.7224,3.7222,3.7221,3.722,0,0,3.8316,3.8159,3.8153,3.8101,3.7985,3.7936,3.7884,3.7795,3.776,3.7681,3.7632,3.7533,3.7496,3.7438,3.7374,3.7346,3.7356,3.7309,3.7305,3.7319,3.7311,3.734,3.7341,3.7319,3.7318,3.7318,3.7319,0,3.8331,3.8236,3.8155,3.8088,3.8031,3.7944,3.7898,3.782,3.7755,3.7694,3.7621,3.7552,3.7509,3.7474,3.7443,3.7362,3.7353,3.7361,3.7268,3.7266,3.7294,3.734,3.737,3.7375,3.7317,3.7317,3.7317,0,3.8337,3.8264,3.8192,3.8081,3.8054,3.8014,3.7926,3.787,3.7779,3.7733,3.767,3.7604,3.7541,3.7511,3.7421,3.7429,3.7386,3.7341,3.7339,3.7324,3.7292,3.7324,3.7375,3.7375,3.7315,3.7315,3.7315,0,3.841,3.8294,3.8235,3.8194,3.8064,3.8038,3.7981,3.789,3.7841,3.7763,3.773,3.7646,3.7598,3.7532,3.7444,3.743,3.7362,3.7325,3.7319,3.7321,3.7306,3.7308,3.7348,3.7284,3.7284,3.7284,3.7284,0,3.8434,3.8393,3.8267,3.823,3.8181,3.8087,3.8039,3.7975,3.7895,3.7842,3.7762,3.7713,3.7601,3.7538,3.7468,3.7402,3.7382,3.7341,3.7322,3.7346,3.7351,3.7314,3.7311,3.7284,3.7284,3.7284,3.7284,0,3.8507,3.8421,3.8351,3.8234,3.8204,3.8172,3.807,3.8029,3.7961,3.7895,3.7874,3.7764,3.7686,3.7592,3.7483,3.7436,3.7376,3.7349,3.7407,3.7396,3.7395,3.7395,3.741,3.7406,3.7349,3.735,3.735,0,3.8527,3.8493,3.8373,3.8334,3.8281,3.8218,3.8169,3.8075,3.8026,3.792,3.7892,3.7809,3.7736,3.7615,3.7523,3.7439,3.7408,3.7419,3.7394,3.7419,3.7404,3.7406,3.7401,3.7425,3.7426,3.7427,3.7428,0,3.857,3.8529,3.8463,3.8382,3.8326,3.8257,3.8184,3.8155,3.8046,3.7995,3.7915,3.786,3.7749,3.7666,3.757,3.7508,3.7448,3.7437,3.743,3.7453,3.7487,3.7466,3.7422,3.7436,3.7435,3.7434,3.7434,3.7434,3.8614,3.858,3.849,3.8418,3.8354,3.8288,3.8244,3.8171,3.8104,3.8008,3.7957,3.7878,3.7785,3.7651,3.7591,3.7526,3.7505,3.7496,3.7493,3.7492,3.7498,3.7501,3.7508,3.7508,3.7508,3.7507,3.7507,0,3.8651,3.8589,3.8525,3.8426,3.8369,3.8322,3.8239,3.8193,3.8126,3.8046,3.7978,3.7885,3.7804,3.7707,3.7619,3.7585,3.7555,3.7565,3.7564,3.7551,3.7524,3.7537,3.759,3.759,3.759,3.759,3.759,3.759,3.8663,3.8602,3.8551,3.8455,3.8393,3.8317,3.8273,3.8211,3.8146,3.8048,3.7981,3.792,3.7832,3.7737,3.7659,3.7632,3.7602,3.7619,3.7584,3.756,3.7553,3.7546,3.7557,3.7614,3.7614,3.7616,3.7616,3.7616]}]]